CFG9AM EDDF-GCFV

Flight info

Callsign CFG9AM
Flight time 4h 15m
Altitude 36000
Route SOBRA2L SOBRA Y180 DIK UN857 TOLVU DCT RAPOR/N0453F370 DCT ESTOC DCT PON DCT DITAL DCT GODIX DCT DIDAK DCT KURIS DCT TERPO DCT ERIGA DCT FUJTI DCT BAKUP DCT BATAX DCT OLGAR DCT TAKAV/N0454F390 DCT VEDOD UN857 TERTO
Aircraft A20N/M-SBDE3FGHIJ1J4J7LORVWXYZ/SB2D1G1

Departure

Time 2026-05-06 07:28
Airport Frankfurt Main Airport (EDDF)

Arrival

Time 2026-05-06 11:43
Airport Fuerteventura Airport (GCFV)
Time Latitude Longitude Altitude Speed Heading
2026-05-06 06:52 50.04044 8.55545 350 ft 0 kts 161°
2026-05-06 07:19 50.04042 8.55546 350 ft 0 kts 161°
2026-05-06 07:20 50.04038 8.55548 350 ft 0 kts 161°
2026-05-06 07:22 50.03992 8.55576 350 ft 10 kts 160°
2026-05-06 07:22 50.03951 8.55516 349 ft 10 kts 279°
2026-05-06 07:22 50.04010 8.55443 350 ft 11 kts 336°
2026-05-06 07:23 50.04084 8.55395 350 ft 11 kts 315°
2026-05-06 07:23 50.04076 8.55255 350 ft 16 kts 251°
2026-05-06 07:23 50.04034 8.55080 348 ft 18 kts 249°
2026-05-06 07:23 50.03988 8.54893 348 ft 18 kts 249°
2026-05-06 07:24 50.03942 8.54697 347 ft 19 kts 250°
2026-05-06 07:24 50.03894 8.54495 345 ft 20 kts 250°
2026-05-06 07:24 50.03831 8.54306 345 ft 19 kts 236°
2026-05-06 07:24 50.03774 8.54110 343 ft 20 kts 250°
2026-05-06 07:25 50.03722 8.53903 342 ft 20 kts 250°
2026-05-06 07:25 50.03673 8.53693 341 ft 20 kts 251°
2026-05-06 07:25 50.03622 8.53487 340 ft 20 kts 249°
2026-05-06 07:25 50.03572 8.53284 339 ft 20 kts 250°
2026-05-06 07:26 50.03522 8.53079 338 ft 20 kts 249°
2026-05-06 07:26 50.03472 8.52879 337 ft 19 kts 248°
2026-05-06 07:26 50.03423 8.52684 337 ft 17 kts 249°
2026-05-06 07:26 50.03378 8.52597 336 ft 8 kts 193°
2026-05-06 07:27 50.03318 8.52592 336 ft 9 kts 179°
2026-05-06 07:27 50.03192 8.52594 335 ft 42 kts 180°
2026-05-06 07:27 50.02657 8.52599 334 ft 109 kts 180°
2026-05-06 07:27 50.01711 8.52612 337 ft 161 kts 180°
2026-05-06 07:28 50.00568 8.52637 848 ft 165 kts 180°
2026-05-06 07:28 49.99413 8.52698 1478 ft 168 kts 180°
2026-05-06 07:28 49.96933 8.52866 2381 ft 195 kts 180°
2026-05-06 07:29 49.95521 8.52957 2780 ft 211 kts 181°
2026-05-06 07:29 49.93969 8.53056 3154 ft 232 kts 181°
2026-05-06 07:29 49.92372 8.53163 3950 ft 231 kts 181°
2026-05-06 07:29 49.90777 8.53271 4764 ft 231 kts 181°
2026-05-06 07:30 49.89137 8.53377 5294 ft 244 kts 181°
2026-05-06 07:30 49.87422 8.53288 5960 ft 249 kts 192°
2026-05-06 07:30 49.85801 8.52489 6735 ft 246 kts 216°
2026-05-06 07:30 49.84658 8.50594 7532 ft 245 kts 243°
2026-05-06 07:31 49.84218 8.48073 8269 ft 250 kts 267°
2026-05-06 07:31 49.84291 8.45294 8788 ft 265 kts 271°
2026-05-06 07:31 49.84385 8.42403 9384 ft 274 kts 270°
2026-05-06 07:31 49.84476 8.39479 10099 ft 277 kts 270°
2026-05-06 07:32 49.84565 8.36422 10555 ft 291 kts 270°
2026-05-06 07:32 49.84654 8.33218 10889 ft 308 kts 269°
2026-05-06 07:32 49.84749 8.29758 11229 ft 325 kts 269°
2026-05-06 07:32 49.84847 8.26252 11789 ft 333 kts 269°
2026-05-06 07:33 49.84948 8.22652 12501 ft 336 kts 269°
2026-05-06 07:33 49.85048 8.19029 13194 ft 339 kts 269°
2026-05-06 07:33 49.85147 8.15401 13850 ft 342 kts 269°
2026-05-06 07:33 49.85245 8.11676 14523 ft 345 kts 269°
2026-05-06 07:34 49.85342 8.07927 15175 ft 349 kts 269°
2026-05-06 07:34 49.85439 8.04182 15783 ft 352 kts 269°
2026-05-06 07:34 49.85534 8.00403 16391 ft 356 kts 269°
2026-05-06 07:34 49.85631 7.96530 17011 ft 358 kts 269°
2026-05-06 07:35 49.85726 7.92680 17601 ft 361 kts 269°
2026-05-06 07:35 49.85820 7.88768 18191 ft 364 kts 269°
2026-05-06 07:35 49.85915 7.84845 18780 ft 366 kts 270°
2026-05-06 07:35 49.86038 7.80907 19351 ft 369 kts 272°
2026-05-06 07:36 49.86325 7.76988 19916 ft 373 kts 276°
2026-05-06 07:36 49.86813 7.72995 20505 ft 376 kts 280°
2026-05-06 07:36 49.87420 7.69102 21059 ft 378 kts 281°
2026-05-06 07:36 49.88042 7.65102 21621 ft 381 kts 281°
2026-05-06 07:37 49.88657 7.61130 22169 ft 383 kts 281°
2026-05-06 07:37 49.89276 7.57123 22699 ft 385 kts 281°
2026-05-06 07:37 49.89903 7.53046 23216 ft 388 kts 281°
2026-05-06 07:37 49.90521 7.49026 23716 ft 390 kts 281°
2026-05-06 07:38 49.91151 7.44905 24218 ft 392 kts 281°
2026-05-06 07:38 49.91781 7.40783 24664 ft 395 kts 281°
2026-05-06 07:38 49.92418 7.36604 25078 ft 399 kts 281°
2026-05-06 07:38 49.93059 7.32383 25487 ft 402 kts 280°
2026-05-06 07:39 49.93699 7.28164 25895 ft 405 kts 280°
2026-05-06 07:39 49.94340 7.23916 26291 ft 408 kts 280°
2026-05-06 07:39 49.94989 7.19604 26667 ft 411 kts 280°
2026-05-06 07:39 49.95642 7.15258 27020 ft 414 kts 280°
2026-05-06 07:40 49.96292 7.10912 27366 ft 417 kts 280°
2026-05-06 07:40 49.96947 7.06522 27698 ft 419 kts 280°
2026-05-06 07:40 49.97604 7.02109 28050 ft 421 kts 280°
2026-05-06 07:40 49.98251 6.97688 28496 ft 420 kts 278°
2026-05-06 07:41 49.98748 6.93192 28935 ft 418 kts 275°
2026-05-06 07:41 49.99035 6.88737 29323 ft 416 kts 271°
2026-05-06 07:41 49.99119 6.84273 29706 ft 415 kts 267°
2026-05-06 07:41 49.99026 6.79750 30038 ft 415 kts 265°
2026-05-06 07:42 49.98891 6.75283 30369 ft 415 kts 264°
2026-05-06 07:42 49.98753 6.70844 30692 ft 416 kts 264°
2026-05-06 07:42 49.98558 6.66349 30960 ft 416 kts 262°
2026-05-06 07:42 49.98192 6.61839 31215 ft 417 kts 258°
2026-05-06 07:43 49.97664 6.57462 31404 ft 418 kts 255°
2026-05-06 07:43 49.96950 6.53076 31559 ft 422 kts 252°
2026-05-06 07:43 49.96055 6.48713 31674 ft 426 kts 249°
2026-05-06 07:43 49.94989 6.44402 31833 ft 428 kts 245°
2026-05-06 07:44 49.93802 6.40158 32065 ft 429 kts 245°
2026-05-06 07:44 49.92604 6.35905 32326 ft 430 kts 245°
2026-05-06 07:44 49.91409 6.31640 32644 ft 428 kts 245°
2026-05-06 07:44 49.90226 6.27422 32960 ft 426 kts 245°
2026-05-06 07:45 49.89029 6.23272 33210 ft 423 kts 245°
2026-05-06 07:45 49.87849 6.19093 33483 ft 420 kts 244°
2026-05-06 07:45 49.86551 6.15008 33751 ft 417 kts 240°
2026-05-06 07:45 49.85135 6.11142 33999 ft 414 kts 237°
2026-05-06 07:46 49.83585 6.07434 34237 ft 412 kts 234°
2026-05-06 07:46 49.81927 6.03818 34428 ft 411 kts 233°
2026-05-06 07:46 49.80253 6.00187 34576 ft 412 kts 233°
2026-05-06 07:46 49.78600 5.96599 34696 ft 414 kts 233°
2026-05-06 07:47 49.75455 5.89062 34778 ft 420 kts 239°
2026-05-06 07:47 49.72861 5.80991 34781 ft 421 kts 246°
2026-05-06 07:48 49.70792 5.72504 34781 ft 421 kts 249°
2026-05-06 07:48 49.68811 5.63973 34786 ft 422 kts 249°
2026-05-06 07:49 49.66825 5.55461 34786 ft 423 kts 249°
2026-05-06 07:49 49.64825 5.46931 34779 ft 424 kts 249°
2026-05-06 07:50 49.62806 5.38366 34782 ft 424 kts 249°
2026-05-06 07:50 49.60922 5.29799 34785 ft 425 kts 250°
2026-05-06 07:51 49.59155 5.21130 34777 ft 425 kts 253°
2026-05-06 07:51 49.57766 5.12249 34772 ft 426 kts 255°
2026-05-06 07:52 49.56419 5.03317 34784 ft 427 kts 255°
2026-05-06 07:52 49.55074 4.94469 34789 ft 428 kts 255°
2026-05-06 07:53 49.53705 4.85531 34802 ft 428 kts 255°
2026-05-06 07:53 49.52331 4.76615 34795 ft 428 kts 255°
2026-05-06 07:54 49.50953 4.67725 34809 ft 429 kts 255°
2026-05-06 07:54 49.49563 4.58796 34814 ft 429 kts 255°
2026-05-06 07:55 49.48172 4.49909 34822 ft 429 kts 255°
2026-05-06 07:55 49.46763 4.40968 34821 ft 430 kts 255°
2026-05-06 07:56 49.45354 4.32070 34822 ft 430 kts 255°
2026-05-06 07:56 49.43931 4.23129 34826 ft 430 kts 255°
2026-05-06 07:57 49.42510 4.14259 34825 ft 431 kts 255°
2026-05-06 07:57 49.41073 4.05328 34824 ft 431 kts 255°
2026-05-06 07:58 49.39630 3.96411 34825 ft 432 kts 255°
2026-05-06 07:58 49.38181 3.87498 34827 ft 433 kts 255°
2026-05-06 07:59 49.36716 3.78541 34825 ft 433 kts 255°
2026-05-06 07:59 49.35245 3.69593 34819 ft 433 kts 255°
2026-05-06 08:00 49.33772 3.60685 34829 ft 432 kts 255°
2026-05-06 08:00 49.32287 3.51742 34825 ft 433 kts 255°
2026-05-06 08:01 49.30792 3.42792 34841 ft 434 kts 255°
2026-05-06 08:01 49.29293 3.33866 34837 ft 434 kts 254°
2026-05-06 08:02 49.27778 3.24891 34840 ft 435 kts 255°
2026-05-06 08:02 49.26264 3.15960 34842 ft 434 kts 255°
2026-05-06 08:03 49.24738 3.07018 34845 ft 434 kts 255°
2026-05-06 08:03 49.23215 2.98133 34847 ft 433 kts 255°
2026-05-06 08:04 49.21680 2.89220 34868 ft 433 kts 255°
2026-05-06 08:04 49.20136 2.80302 34867 ft 434 kts 255°
2026-05-06 08:05 49.18582 2.71369 34869 ft 436 kts 255°
2026-05-06 08:05 49.17020 2.62451 34862 ft 436 kts 255°
2026-05-06 08:06 49.15461 2.53585 34873 ft 435 kts 255°
2026-05-06 08:06 49.13879 2.44645 34869 ft 436 kts 255°
2026-05-06 08:07 49.12598 2.35597 34881 ft 437 kts 261°
2026-05-06 08:07 49.11741 2.26411 34866 ft 438 kts 262°
2026-05-06 08:08 49.10892 2.17237 34891 ft 438 kts 262°
2026-05-06 08:08 49.09852 2.08123 34879 ft 438 kts 256°
2026-05-06 08:09 49.08125 1.99236 34877 ft 437 kts 249°
2026-05-06 08:09 49.05733 1.90682 34892 ft 438 kts 245°
2026-05-06 08:10 49.03194 1.82297 34858 ft 439 kts 245°
2026-05-06 08:10 49.00633 1.73842 34886 ft 440 kts 245°
2026-05-06 08:11 48.98067 1.65386 34898 ft 440 kts 245°
2026-05-06 08:11 48.95513 1.57004 34879 ft 440 kts 245°
2026-05-06 08:12 48.92938 1.48578 34898 ft 440 kts 245°
2026-05-06 08:12 48.90349 1.40123 34886 ft 441 kts 245°
2026-05-06 08:13 48.87761 1.31703 34887 ft 441 kts 245°
2026-05-06 08:13 48.85144 1.23221 34896 ft 441 kts 245°
2026-05-06 08:14 48.82547 1.14835 34895 ft 442 kts 245°
2026-05-06 08:14 48.79914 1.06361 34893 ft 442 kts 245°
2026-05-06 08:15 48.77302 0.97989 34885 ft 443 kts 245°
2026-05-06 08:15 48.74623 0.89587 34905 ft 443 kts 243°
2026-05-06 08:16 48.71507 0.81556 34898 ft 443 kts 239°
2026-05-06 08:16 48.68285 0.73614 34917 ft 444 kts 239°
2026-05-06 08:17 48.65056 0.65673 34914 ft 444 kts 239°
2026-05-06 08:17 48.61816 0.57722 34893 ft 444 kts 239°
2026-05-06 08:18 48.58578 0.49801 34910 ft 444 kts 239°
2026-05-06 08:18 48.55336 0.41885 34914 ft 445 kts 239°
2026-05-06 08:19 48.52087 0.33976 34911 ft 445 kts 238°
2026-05-06 08:19 48.48801 0.26001 34910 ft 445 kts 238°
2026-05-06 08:20 48.45521 0.18067 34906 ft 446 kts 238°
2026-05-06 08:20 48.42237 0.10149 34918 ft 446 kts 238°
2026-05-06 08:21 48.38954 0.02258 34907 ft 446 kts 238°
2026-05-06 08:21 48.35588 -0.05561 34908 ft 447 kts 235°
2026-05-06 08:22 48.31900 -0.13051 34895 ft 447 kts 234°
2026-05-06 08:22 48.28170 -0.20559 34888 ft 448 kts 234°
2026-05-06 08:23 48.24432 -0.28039 34907 ft 448 kts 233°
2026-05-06 08:23 48.20668 -0.35417 34901 ft 448 kts 233°
2026-05-06 08:24 48.16871 -0.42828 34908 ft 448 kts 233°
2026-05-06 08:24 48.13071 -0.50235 34904 ft 449 kts 233°
2026-05-06 08:25 48.09270 -0.57629 34903 ft 449 kts 233°
2026-05-06 08:25 48.05481 -0.64977 34909 ft 449 kts 233°
2026-05-06 08:26 48.01639 -0.72410 34923 ft 450 kts 233°
2026-05-06 08:26 47.97823 -0.79771 34921 ft 449 kts 233°
2026-05-06 08:27 47.93980 -0.87165 34916 ft 448 kts 233°
2026-05-06 08:27 47.90168 -0.94479 34920 ft 449 kts 233°
2026-05-06 08:28 47.86312 -1.01861 34932 ft 450 kts 233°
2026-05-06 08:28 47.82478 -1.09178 34906 ft 449 kts 233°
2026-05-06 08:29 47.78646 -1.16470 34917 ft 449 kts 233°
2026-05-06 08:29 47.74794 -1.23780 34897 ft 449 kts 233°
2026-05-06 08:30 47.70954 -1.31049 34918 ft 448 kts 233°
2026-05-06 08:30 47.67115 -1.38297 34918 ft 448 kts 233°
2026-05-06 08:31 47.63240 -1.45593 34915 ft 448 kts 233°
2026-05-06 08:31 47.59341 -1.52771 34931 ft 449 kts 230°
2026-05-06 08:32 47.55156 -1.59694 34938 ft 448 kts 229°
2026-05-06 08:32 47.50997 -1.66529 34944 ft 448 kts 229°
2026-05-06 08:33 47.46825 -1.73375 34923 ft 448 kts 229°
2026-05-06 08:33 47.42645 -1.80215 34946 ft 449 kts 229°
2026-05-06 08:34 47.36166 -1.90228 34927 ft 450 kts 223°
2026-05-06 08:35 47.31278 -1.95974 34926 ft 451 kts 215°
2026-05-06 08:35 47.25967 -2.00892 34934 ft 451 kts 211°
2026-05-06 08:36 47.20604 -2.05654 34922 ft 452 kts 211°
2026-05-06 08:36 47.15240 -2.10426 34922 ft 451 kts 212°
2026-05-06 08:37 47.09898 -2.15175 34923 ft 452 kts 212°
2026-05-06 08:37 47.04529 -2.19941 34922 ft 452 kts 212°
2026-05-06 08:38 46.99137 -2.24714 34919 ft 452 kts 212°
2026-05-06 08:38 46.93750 -2.29470 34907 ft 452 kts 212°
2026-05-06 08:39 46.88374 -2.34204 34918 ft 452 kts 212°
2026-05-06 08:39 46.82989 -2.38939 34919 ft 452 kts 212°
2026-05-06 08:40 46.77601 -2.43671 34928 ft 452 kts 212°
2026-05-06 08:40 46.72251 -2.48356 34927 ft 451 kts 212°
2026-05-06 08:41 46.66867 -2.53057 34933 ft 451 kts 212°
2026-05-06 08:41 46.61497 -2.57738 34908 ft 451 kts 212°
2026-05-06 08:42 46.56122 -2.62409 34933 ft 450 kts 212°
2026-05-06 08:42 46.50746 -2.67072 34932 ft 451 kts 211°
2026-05-06 08:43 46.45387 -2.71709 34932 ft 450 kts 211°
2026-05-06 08:43 46.40028 -2.76335 34948 ft 450 kts 211°
2026-05-06 08:44 46.34670 -2.80947 34940 ft 450 kts 211°
2026-05-06 08:44 46.29294 -2.85566 34938 ft 449 kts 211°
2026-05-06 08:45 46.23937 -2.90186 34935 ft 449 kts 212°
2026-05-06 08:45 46.18584 -2.94860 34953 ft 449 kts 212°
2026-05-06 08:46 46.13257 -2.99498 34947 ft 449 kts 212°
2026-05-06 08:46 46.07908 -3.04141 34939 ft 449 kts 212°
2026-05-06 08:47 46.02600 -3.08736 34939 ft 448 kts 212°
2026-05-06 08:47 45.97260 -3.13342 34939 ft 448 kts 212°
2026-05-06 08:48 45.91949 -3.17915 34951 ft 448 kts 212°
2026-05-06 08:48 45.86660 -3.22463 34933 ft 448 kts 212°
2026-05-06 08:49 45.81347 -3.27021 34946 ft 448 kts 212°
2026-05-06 08:49 45.75999 -3.31597 34941 ft 448 kts 212°
2026-05-06 08:50 45.70657 -3.36157 34969 ft 447 kts 212°
2026-05-06 08:50 45.65349 -3.40676 34962 ft 446 kts 212°
2026-05-06 08:51 45.60034 -3.45193 34961 ft 446 kts 212°
2026-05-06 08:51 45.54713 -3.49706 34964 ft 446 kts 212°
2026-05-06 08:52 45.49372 -3.54226 34962 ft 446 kts 212°
2026-05-06 08:52 45.44044 -3.58725 34965 ft 446 kts 212°
2026-05-06 08:53 45.38727 -3.63203 34962 ft 446 kts 212°
2026-05-06 08:53 45.33481 -3.67612 34963 ft 446 kts 212°
2026-05-06 08:54 45.28129 -3.72098 34961 ft 445 kts 212°
2026-05-06 08:54 45.22848 -3.76518 34965 ft 444 kts 212°
2026-05-06 08:55 45.17522 -3.80966 34982 ft 444 kts 212°
2026-05-06 08:55 45.12216 -3.85388 34961 ft 443 kts 212°
2026-05-06 08:56 45.06933 -3.89781 34974 ft 444 kts 212°
2026-05-06 08:56 45.01599 -3.94204 34977 ft 445 kts 212°
2026-05-06 08:57 44.96291 -3.98595 34975 ft 444 kts 212°
2026-05-06 08:57 44.90976 -4.02985 34982 ft 443 kts 212°
2026-05-06 08:58 44.85643 -4.07380 34977 ft 441 kts 212°
2026-05-06 08:58 44.80371 -4.11716 34983 ft 441 kts 212°
2026-05-06 08:59 44.75074 -4.16062 34975 ft 440 kts 212°
2026-05-06 08:59 44.69791 -4.20388 34965 ft 440 kts 212°
2026-05-06 09:00 44.64518 -4.24697 34974 ft 441 kts 212°
2026-05-06 09:00 44.59219 -4.29017 34971 ft 440 kts 212°
2026-05-06 09:01 44.53925 -4.33322 34977 ft 439 kts 212°
2026-05-06 09:01 44.48695 -4.37570 34979 ft 438 kts 212°
2026-05-06 09:02 44.43432 -4.41832 34977 ft 438 kts 212°
2026-05-06 09:02 44.38196 -4.46145 34982 ft 437 kts 214°
2026-05-06 09:03 44.33009 -4.50563 34992 ft 437 kts 214°
2026-05-06 09:03 44.27853 -4.54941 34998 ft 436 kts 214°
2026-05-06 09:04 44.22673 -4.59317 35001 ft 436 kts 214°
2026-05-06 09:04 44.17466 -4.63706 35061 ft 438 kts 214°
2026-05-06 09:04 44.14858 -4.65901 35273 ft 437 kts 213°
2026-05-06 09:05 44.12268 -4.68076 35516 ft 435 kts 213°
2026-05-06 09:05 44.09710 -4.70221 35728 ft 433 kts 213°
2026-05-06 09:05 44.07134 -4.72379 35925 ft 432 kts 213°
2026-05-06 09:05 44.04562 -4.74534 36116 ft 431 kts 213°
2026-05-06 09:06 44.02029 -4.76654 36283 ft 430 kts 213°
2026-05-06 09:06 43.99446 -4.78812 36445 ft 430 kts 213°
2026-05-06 09:06 43.96903 -4.80937 36616 ft 430 kts 213°
2026-05-06 09:06 43.94342 -4.83073 36756 ft 429 kts 213°
2026-05-06 09:07 43.91792 -4.85198 36891 ft 429 kts 213°
2026-05-06 09:07 43.86657 -4.89470 37000 ft 430 kts 213°
2026-05-06 09:08 43.81526 -4.93727 36998 ft 431 kts 213°
2026-05-06 09:08 43.76395 -4.97980 36995 ft 437 kts 213°
2026-05-06 09:09 43.71120 -5.02346 37001 ft 442 kts 213°
2026-05-06 09:09 43.65860 -5.06684 36994 ft 443 kts 213°
2026-05-06 09:10 43.60561 -5.11046 36996 ft 442 kts 213°
2026-05-06 09:10 43.57922 -5.13215 36700 ft 441 kts 213°
2026-05-06 09:10 43.55311 -5.15358 36863 ft 441 kts 213°
2026-05-06 09:11 43.50035 -5.19683 36964 ft 443 kts 213°
2026-05-06 09:11 43.44743 -5.24015 36987 ft 443 kts 213°
2026-05-06 09:12 43.39463 -5.28326 36989 ft 442 kts 213°
2026-05-06 09:12 43.34180 -5.32632 37000 ft 442 kts 213°
2026-05-06 09:13 43.28877 -5.36948 36999 ft 442 kts 213°
2026-05-06 09:13 43.23620 -5.41214 37002 ft 442 kts 213°
2026-05-06 09:14 43.18301 -5.45522 37003 ft 441 kts 213°
2026-05-06 09:14 43.13054 -5.49762 36993 ft 441 kts 213°
2026-05-06 09:15 43.07747 -5.54043 36987 ft 441 kts 213°
2026-05-06 09:15 43.02478 -5.58283 36971 ft 440 kts 213°
2026-05-06 09:16 42.97229 -5.62502 36964 ft 440 kts 214°
2026-05-06 09:16 42.91961 -5.66727 36969 ft 439 kts 213°
2026-05-06 09:17 42.86675 -5.70956 36982 ft 439 kts 213°
2026-05-06 09:17 42.81390 -5.75179 36992 ft 439 kts 213°
2026-05-06 09:18 42.76125 -5.79377 36998 ft 439 kts 213°
2026-05-06 09:18 42.70855 -5.83568 36997 ft 439 kts 213°
2026-05-06 09:19 42.65611 -5.87729 36995 ft 439 kts 213°
2026-05-06 09:19 42.60351 -5.91897 36997 ft 438 kts 213°
2026-05-06 09:20 42.55081 -5.96064 37000 ft 437 kts 213°
2026-05-06 09:20 42.49824 -6.00213 36994 ft 437 kts 213°
2026-05-06 09:21 42.44577 -6.04346 36990 ft 436 kts 213°
2026-05-06 09:21 42.39352 -6.08454 36988 ft 436 kts 213°
2026-05-06 09:22 42.34098 -6.12576 36985 ft 437 kts 213°
2026-05-06 09:22 42.28862 -6.16676 36978 ft 436 kts 213°
2026-05-06 09:23 42.23582 -6.20804 36975 ft 436 kts 213°
2026-05-06 09:23 42.18341 -6.24892 36972 ft 436 kts 213°
2026-05-06 09:24 42.13102 -6.28968 36969 ft 435 kts 213°
2026-05-06 09:24 42.07846 -6.33048 36973 ft 435 kts 213°
2026-05-06 09:25 42.02622 -6.37096 36976 ft 435 kts 213°
2026-05-06 09:25 41.97400 -6.41137 36980 ft 434 kts 213°
2026-05-06 09:26 41.92175 -6.45174 36982 ft 434 kts 213°
2026-05-06 09:26 41.86974 -6.49184 36984 ft 434 kts 213°
2026-05-06 09:27 41.81752 -6.53203 36984 ft 435 kts 213°
2026-05-06 09:27 41.76511 -6.57227 36984 ft 435 kts 213°
2026-05-06 09:28 41.71246 -6.61193 36988 ft 436 kts 210°
2026-05-06 09:28 41.65688 -6.64559 36990 ft 438 kts 205°
2026-05-06 09:29 41.60042 -6.67619 36993 ft 438 kts 205°
2026-05-06 09:29 41.54472 -6.70636 36994 ft 437 kts 205°
2026-05-06 09:30 41.48827 -6.73688 36994 ft 437 kts 205°
2026-05-06 09:30 41.43223 -6.76713 36996 ft 437 kts 205°
2026-05-06 09:31 41.37597 -6.79742 36998 ft 436 kts 205°
2026-05-06 09:31 41.31952 -6.82778 36999 ft 436 kts 205°
2026-05-06 09:32 41.26304 -6.85808 37004 ft 436 kts 205°
2026-05-06 09:32 41.20710 -6.88803 37002 ft 435 kts 205°
2026-05-06 09:33 41.15093 -6.91807 37004 ft 435 kts 205°
2026-05-06 09:33 41.09499 -6.94790 37005 ft 435 kts 205°
2026-05-06 09:34 41.03863 -6.97792 37005 ft 435 kts 205°
2026-05-06 09:34 40.98259 -7.00771 37004 ft 435 kts 205°
2026-05-06 09:35 40.92638 -7.03754 37003 ft 435 kts 205°
2026-05-06 09:35 40.87045 -7.06717 36997 ft 434 kts 205°
2026-05-06 09:36 40.81419 -7.09691 36989 ft 434 kts 205°
2026-05-06 09:36 40.75811 -7.12649 36983 ft 434 kts 205°
2026-05-06 09:37 40.70216 -7.15597 36975 ft 434 kts 205°
2026-05-06 09:37 40.64631 -7.18534 36966 ft 434 kts 205°
2026-05-06 09:38 40.58999 -7.21491 36962 ft 434 kts 205°
2026-05-06 09:38 40.53396 -7.24426 36958 ft 433 kts 205°
2026-05-06 09:39 40.47827 -7.27338 36955 ft 433 kts 205°
2026-05-06 09:39 40.42216 -7.30267 36956 ft 433 kts 205°
2026-05-06 09:40 40.36654 -7.33165 36958 ft 432 kts 205°
2026-05-06 09:40 40.28244 -7.37538 36962 ft 432 kts 205°
2026-05-06 09:41 40.22675 -7.40427 36962 ft 431 kts 205°
2026-05-06 09:41 40.17103 -7.43312 36963 ft 431 kts 205°
2026-05-06 09:42 40.11522 -7.46197 36963 ft 431 kts 205°
2026-05-06 09:42 40.05953 -7.49070 36962 ft 431 kts 205°
2026-05-06 09:43 40.00361 -7.51952 36964 ft 432 kts 205°
2026-05-06 09:43 39.94788 -7.54817 36965 ft 431 kts 205°
2026-05-06 09:44 39.89207 -7.57684 36970 ft 431 kts 205°
2026-05-06 09:44 39.83639 -7.60537 36966 ft 430 kts 205°
2026-05-06 09:45 39.78088 -7.63378 36972 ft 430 kts 205°
2026-05-06 09:45 39.72506 -7.66228 36968 ft 430 kts 204°
2026-05-06 09:46 39.66917 -7.69077 36972 ft 430 kts 204°
2026-05-06 09:46 39.61390 -7.71890 36963 ft 430 kts 204°
2026-05-06 09:47 39.55784 -7.74739 36968 ft 430 kts 204°
2026-05-06 09:47 39.50232 -7.77554 36970 ft 429 kts 204°
2026-05-06 09:48 39.44686 -7.80361 36968 ft 429 kts 204°
2026-05-06 09:48 39.39126 -7.83169 36970 ft 429 kts 204°
2026-05-06 09:49 39.33577 -7.85967 36974 ft 428 kts 204°
2026-05-06 09:49 39.28030 -7.88761 36980 ft 428 kts 204°
2026-05-06 09:50 39.22482 -7.91549 36975 ft 428 kts 204°
2026-05-06 09:50 39.16892 -7.94334 36978 ft 428 kts 203°
2026-05-06 09:51 39.11319 -7.96941 36982 ft 428 kts 203°
2026-05-06 09:51 39.05734 -7.99530 36983 ft 428 kts 203°
2026-05-06 09:52 39.00111 -8.02140 36981 ft 428 kts 203°
2026-05-06 09:52 38.94523 -8.04733 36981 ft 429 kts 203°
2026-05-06 09:53 38.88897 -8.07340 36988 ft 429 kts 203°
2026-05-06 09:53 38.83279 -8.09940 36988 ft 428 kts 203°
2026-05-06 09:54 38.77707 -8.12516 36985 ft 427 kts 203°
2026-05-06 09:54 38.72110 -8.15101 36981 ft 427 kts 203°
2026-05-06 09:55 38.66534 -8.17670 36992 ft 426 kts 203°
2026-05-06 09:55 38.60929 -8.20247 36991 ft 426 kts 203°
2026-05-06 09:56 38.55377 -8.22797 36987 ft 426 kts 203°
2026-05-06 09:56 38.49800 -8.25354 36990 ft 426 kts 203°
2026-05-06 09:57 38.44222 -8.27907 36985 ft 426 kts 203°
2026-05-06 09:57 38.38659 -8.30448 36986 ft 425 kts 203°
2026-05-06 09:58 38.33089 -8.32989 36984 ft 425 kts 203°
2026-05-06 09:58 38.27531 -8.35520 36982 ft 425 kts 203°
2026-05-06 09:59 38.21933 -8.38067 36980 ft 425 kts 203°
2026-05-06 09:59 38.16387 -8.40583 36980 ft 425 kts 203°
2026-05-06 10:00 38.10825 -8.43105 36984 ft 425 kts 203°
2026-05-06 10:00 38.05276 -8.45616 36987 ft 425 kts 203°
2026-05-06 10:01 37.99702 -8.48134 36983 ft 424 kts 203°
2026-05-06 10:01 37.94147 -8.50640 36982 ft 424 kts 203°
2026-05-06 10:02 37.88588 -8.53143 36983 ft 424 kts 203°
2026-05-06 10:02 37.83040 -8.55636 36981 ft 424 kts 203°
2026-05-06 10:03 37.77481 -8.58132 36984 ft 423 kts 203°
2026-05-06 10:03 37.71939 -8.60616 36981 ft 423 kts 203°
2026-05-06 10:04 37.66410 -8.63090 36984 ft 423 kts 203°
2026-05-06 10:04 37.60858 -8.65569 36985 ft 423 kts 203°
2026-05-06 10:05 37.55307 -8.68046 36987 ft 424 kts 203°
2026-05-06 10:05 37.49733 -8.70529 36992 ft 424 kts 202°
2026-05-06 10:06 37.44216 -8.72982 37000 ft 423 kts 202°
2026-05-06 10:06 37.38665 -8.75444 36991 ft 422 kts 202°
2026-05-06 10:07 37.33086 -8.77918 36996 ft 422 kts 202°
2026-05-06 10:07 37.27555 -8.80365 36997 ft 422 kts 203°
2026-05-06 10:08 37.22044 -8.82799 36998 ft 422 kts 203°
2026-05-06 10:08 37.16489 -8.85250 37001 ft 421 kts 203°
2026-05-06 10:09 37.10970 -8.87681 36999 ft 421 kts 202°
2026-05-06 10:09 37.05461 -8.90103 36997 ft 421 kts 203°
2026-05-06 10:10 36.99920 -8.92537 36995 ft 420 kts 203°
2026-05-06 10:10 36.94411 -8.94952 36983 ft 420 kts 202°
2026-05-06 10:11 36.88893 -8.97368 36997 ft 421 kts 203°
2026-05-06 10:11 36.83361 -8.99785 37002 ft 420 kts 203°
2026-05-06 10:12 36.77850 -9.02191 37002 ft 421 kts 202°
2026-05-06 10:12 36.72311 -9.04603 37009 ft 420 kts 202°
2026-05-06 10:13 36.66775 -9.07012 37006 ft 420 kts 203°
2026-05-06 10:13 36.61229 -9.09421 37007 ft 420 kts 203°
2026-05-06 10:14 36.55716 -9.11812 37009 ft 420 kts 203°
2026-05-06 10:14 36.50215 -9.14193 37006 ft 420 kts 203°
2026-05-06 10:15 36.44686 -9.16585 37005 ft 420 kts 203°
2026-05-06 10:15 36.39173 -9.18967 37009 ft 420 kts 203°
2026-05-06 10:16 36.33692 -9.21329 37008 ft 419 kts 203°
2026-05-06 10:16 36.28167 -9.23707 37012 ft 419 kts 203°
2026-05-06 10:17 36.22671 -9.26069 37005 ft 419 kts 203°
2026-05-06 10:17 36.17173 -9.28429 37002 ft 419 kts 203°
2026-05-06 10:18 36.11668 -9.30786 37007 ft 419 kts 203°
2026-05-06 10:18 36.06160 -9.33143 37009 ft 418 kts 203°
2026-05-06 10:19 36.00640 -9.35500 37006 ft 418 kts 203°
2026-05-06 10:19 35.95256 -9.38062 37004 ft 416 kts 208°
2026-05-06 10:20 35.90010 -9.41129 37007 ft 414 kts 209°
2026-05-06 10:20 35.84825 -9.44175 36997 ft 414 kts 209°
2026-05-06 10:21 35.79621 -9.47231 37003 ft 414 kts 209°
2026-05-06 10:21 35.74426 -9.50279 37001 ft 415 kts 209°
2026-05-06 10:22 35.69226 -9.53325 37000 ft 416 kts 209°
2026-05-06 10:22 35.63995 -9.56385 37004 ft 416 kts 209°
2026-05-06 10:23 35.58759 -9.59444 37002 ft 416 kts 209°
2026-05-06 10:23 35.53539 -9.62488 37008 ft 416 kts 209°
2026-05-06 10:24 35.48311 -9.65534 37013 ft 415 kts 208°
2026-05-06 10:24 35.43105 -9.68562 37009 ft 415 kts 208°
2026-05-06 10:25 35.37889 -9.71592 37010 ft 415 kts 208°
2026-05-06 10:25 35.32673 -9.74617 37011 ft 415 kts 208°
2026-05-06 10:26 35.27454 -9.77640 37010 ft 414 kts 208°
2026-05-06 10:26 35.22254 -9.80646 37010 ft 414 kts 209°
2026-05-06 10:27 35.17063 -9.83645 37003 ft 414 kts 209°
2026-05-06 10:27 35.11856 -9.86646 37007 ft 413 kts 209°
2026-05-06 10:28 35.06647 -9.89647 37005 ft 413 kts 208°
2026-05-06 10:28 35.01436 -9.92644 37005 ft 413 kts 208°
2026-05-06 10:29 34.96257 -9.95618 37002 ft 412 kts 208°
2026-05-06 10:29 34.91076 -9.98589 37002 ft 412 kts 208°
2026-05-06 10:30 34.85908 -10.01548 37006 ft 413 kts 208°
2026-05-06 10:30 34.80727 -10.04512 37004 ft 413 kts 208°
2026-05-06 10:31 34.75517 -10.07487 37004 ft 414 kts 208°
2026-05-06 10:31 34.70302 -10.10461 37004 ft 414 kts 208°
2026-05-06 10:32 34.65097 -10.13424 37008 ft 414 kts 209°
2026-05-06 10:32 34.59891 -10.16385 37010 ft 414 kts 208°
2026-05-06 10:33 34.54652 -10.19359 37011 ft 414 kts 209°
2026-05-06 10:33 34.49423 -10.22326 37007 ft 414 kts 208°
2026-05-06 10:34 34.44209 -10.25277 37006 ft 414 kts 209°
2026-05-06 10:34 34.38988 -10.28229 37011 ft 414 kts 209°
2026-05-06 10:35 34.33786 -10.31166 37012 ft 415 kts 209°
2026-05-06 10:35 34.28573 -10.34107 37013 ft 414 kts 209°
2026-05-06 10:36 34.23356 -10.37045 37016 ft 413 kts 209°
2026-05-06 10:36 34.18147 -10.39974 37017 ft 413 kts 209°
2026-05-06 10:37 34.12929 -10.42905 37014 ft 413 kts 209°
2026-05-06 10:37 34.07735 -10.45817 37016 ft 413 kts 209°
2026-05-06 10:38 34.02528 -10.48733 37016 ft 413 kts 209°
2026-05-06 10:38 33.97285 -10.51666 37016 ft 413 kts 209°
2026-05-06 10:39 33.92083 -10.54573 37012 ft 413 kts 209°
2026-05-06 10:39 33.86864 -10.57484 37011 ft 413 kts 209°
2026-05-06 10:40 33.81648 -10.60389 37015 ft 412 kts 209°
2026-05-06 10:40 33.76447 -10.63282 37017 ft 413 kts 209°
2026-05-06 10:41 33.71241 -10.66175 37014 ft 413 kts 208°
2026-05-06 10:41 33.66002 -10.69081 37010 ft 413 kts 208°
2026-05-06 10:42 33.60798 -10.71965 37013 ft 413 kts 208°
2026-05-06 10:42 33.55566 -10.74860 37018 ft 413 kts 208°
2026-05-06 10:43 33.50363 -10.77735 37013 ft 412 kts 208°
2026-05-06 10:44 33.42533 -10.82054 37012 ft 413 kts 208°
2026-05-06 10:44 33.37339 -10.84916 37020 ft 413 kts 208°
2026-05-06 10:45 33.32138 -10.87776 37019 ft 412 kts 208°
2026-05-06 10:45 33.26935 -10.90634 37019 ft 412 kts 208°
2026-05-06 10:46 33.21719 -10.93495 37022 ft 413 kts 208°
2026-05-06 10:46 33.16492 -10.96359 37027 ft 413 kts 208°
2026-05-06 10:47 33.11297 -10.99201 37026 ft 411 kts 208°
2026-05-06 10:47 33.06114 -11.02034 37021 ft 411 kts 208°
2026-05-06 10:48 33.00906 -11.04876 37022 ft 411 kts 208°
2026-05-06 10:48 32.95711 -11.07707 37029 ft 412 kts 208°
2026-05-06 10:49 32.90466 -11.10562 37024 ft 412 kts 208°
2026-05-06 10:49 32.85273 -11.13384 37012 ft 412 kts 208°
2026-05-06 10:50 32.80027 -11.16232 37014 ft 413 kts 208°
2026-05-06 10:50 32.74823 -11.19054 37022 ft 412 kts 208°
2026-05-06 10:51 32.69597 -11.21882 37027 ft 412 kts 208°
2026-05-06 10:51 32.64391 -11.24698 37022 ft 411 kts 208°
2026-05-06 10:52 32.59170 -11.27516 37019 ft 411 kts 208°
2026-05-06 10:52 32.53983 -11.30315 37021 ft 410 kts 208°
2026-05-06 10:53 32.48796 -11.33110 37018 ft 411 kts 208°
2026-05-06 10:53 32.43588 -11.35914 37015 ft 410 kts 208°
2026-05-06 10:54 32.38397 -11.38701 37014 ft 410 kts 208°
2026-05-06 10:54 32.33218 -11.41480 37020 ft 409 kts 208°
2026-05-06 10:55 32.28042 -11.44255 37018 ft 410 kts 208°
2026-05-06 10:55 32.22840 -11.47039 37019 ft 410 kts 208°
2026-05-06 10:56 32.17665 -11.49806 37015 ft 408 kts 208°
2026-05-06 10:56 32.12500 -11.52565 37015 ft 408 kts 208°
2026-05-06 10:57 32.07333 -11.55320 37016 ft 408 kts 208°
2026-05-06 10:57 32.02140 -11.58086 37012 ft 408 kts 208°
2026-05-06 10:58 31.96971 -11.60833 37007 ft 407 kts 208°
2026-05-06 10:58 31.91798 -11.63581 37027 ft 406 kts 208°
2026-05-06 10:59 31.86651 -11.66312 37017 ft 409 kts 208°
2026-05-06 10:59 31.81424 -11.69085 37015 ft 411 kts 208°
2026-05-06 11:00 31.76230 -11.71835 37014 ft 411 kts 208°
2026-05-06 11:00 31.71004 -11.74596 37012 ft 410 kts 208°
2026-05-06 11:01 31.65809 -11.77339 37009 ft 409 kts 208°
2026-05-06 11:01 31.60650 -11.80059 37002 ft 408 kts 208°
2026-05-06 11:02 31.55468 -11.82789 37002 ft 408 kts 208°
2026-05-06 11:02 31.50313 -11.85501 37009 ft 407 kts 208°
2026-05-06 11:03 31.45134 -11.88222 37006 ft 407 kts 208°
2026-05-06 11:03 31.39973 -11.90931 37003 ft 407 kts 208°
2026-05-06 11:04 31.34797 -11.93643 37013 ft 407 kts 208°
2026-05-06 11:04 31.29645 -11.96340 37005 ft 406 kts 208°
2026-05-06 11:05 31.24476 -11.99044 37006 ft 407 kts 208°
2026-05-06 11:05 31.19324 -12.01736 36998 ft 406 kts 208°
2026-05-06 11:06 31.14161 -12.04428 37009 ft 405 kts 208°
2026-05-06 11:06 31.09011 -12.07111 37004 ft 405 kts 208°
2026-05-06 11:07 31.03895 -12.09774 37000 ft 403 kts 208°
2026-05-06 11:07 30.98755 -12.12444 37008 ft 403 kts 208°
2026-05-06 11:08 30.93644 -12.15097 37004 ft 404 kts 208°
2026-05-06 11:08 30.88515 -12.17757 37004 ft 403 kts 208°
2026-05-06 11:09 30.83389 -12.20411 37005 ft 402 kts 208°
2026-05-06 11:09 30.78313 -12.23038 36998 ft 399 kts 208°
2026-05-06 11:10 30.73233 -12.25662 36999 ft 399 kts 209°
2026-05-06 11:10 30.68170 -12.28275 36998 ft 397 kts 208°
2026-05-06 11:11 30.63128 -12.30873 36998 ft 398 kts 209°
2026-05-06 11:11 30.58086 -12.33469 36999 ft 396 kts 208°
2026-05-06 11:12 30.53094 -12.36183 36996 ft 392 kts 212°
2026-05-06 11:12 30.48403 -12.39372 36996 ft 390 kts 217°
2026-05-06 11:13 30.43983 -12.43030 36993 ft 388 kts 220°
2026-05-06 11:13 30.39654 -12.46730 36996 ft 388 kts 219°
2026-05-06 11:14 30.35325 -12.50434 36993 ft 388 kts 220°
2026-05-06 11:14 30.30973 -12.54158 36999 ft 388 kts 220°
2026-05-06 11:15 30.26659 -12.57852 36996 ft 387 kts 220°
2026-05-06 11:15 30.22331 -12.61548 36995 ft 386 kts 220°
2026-05-06 11:16 30.18009 -12.65240 36997 ft 385 kts 219°
2026-05-06 11:16 30.13705 -12.68912 36995 ft 386 kts 219°
2026-05-06 11:17 30.09281 -12.72362 36995 ft 386 kts 215°
2026-05-06 11:17 30.04599 -12.75419 36994 ft 388 kts 213°
2026-05-06 11:18 29.99865 -12.78462 36998 ft 388 kts 213°
2026-05-06 11:18 29.95149 -12.81482 36994 ft 387 kts 213°
2026-05-06 11:19 29.90453 -12.84483 36994 ft 388 kts 213°
2026-05-06 11:19 29.85723 -12.87500 36999 ft 388 kts 213°
2026-05-06 11:20 29.80999 -12.90508 36999 ft 388 kts 213°
2026-05-06 11:20 29.76294 -12.93506 37002 ft 387 kts 213°
2026-05-06 11:21 29.71588 -12.96493 37232 ft 387 kts 213°
2026-05-06 11:21 29.66859 -12.99496 37069 ft 386 kts 213°
2026-05-06 11:22 29.62187 -13.02463 37012 ft 383 kts 213°
2026-05-06 11:22 29.57516 -13.05420 37000 ft 383 kts 213°
2026-05-06 11:23 29.52848 -13.08373 37000 ft 382 kts 213°
2026-05-06 11:23 29.48241 -13.11283 36525 ft 376 kts 213°
2026-05-06 11:23 29.45950 -13.12729 35729 ft 378 kts 213°
2026-05-06 11:24 29.43643 -13.14189 34871 ft 381 kts 213°
2026-05-06 11:24 29.41341 -13.15644 34061 ft 383 kts 213°
2026-05-06 11:24 29.39001 -13.17117 33251 ft 384 kts 213°
2026-05-06 11:24 29.36660 -13.18580 32362 ft 388 kts 212°
2026-05-06 11:25 29.34216 -13.19966 31373 ft 394 kts 210°
2026-05-06 11:25 29.31733 -13.21338 30386 ft 398 kts 210°
2026-05-06 11:25 29.29235 -13.22714 29392 ft 402 kts 210°
2026-05-06 11:25 29.26721 -13.24094 28328 ft 407 kts 210°
2026-05-06 11:26 29.24166 -13.25502 27130 ft 415 kts 210°
2026-05-06 11:26 29.21540 -13.26943 25819 ft 425 kts 209°
2026-05-06 11:26 29.18861 -13.28414 24871 ft 425 kts 209°
2026-05-06 11:26 29.16218 -13.29858 24197 ft 420 kts 209°
2026-05-06 11:27 29.13613 -13.31283 23441 ft 418 kts 209°
2026-05-06 11:27 29.10995 -13.32717 22642 ft 417 kts 209°
2026-05-06 11:27 29.08379 -13.34148 21900 ft 415 kts 209°
2026-05-06 11:27 29.05803 -13.35555 21189 ft 412 kts 209°
2026-05-06 11:28 29.03246 -13.36951 20541 ft 408 kts 209°
2026-05-06 11:28 29.00692 -13.38344 19886 ft 404 kts 209°
2026-05-06 11:28 28.98177 -13.39716 19247 ft 400 kts 209°
2026-05-06 11:28 28.95679 -13.41078 18588 ft 397 kts 209°
2026-05-06 11:29 28.93173 -13.42443 17901 ft 395 kts 209°
2026-05-06 11:29 28.90723 -13.43778 17275 ft 391 kts 209°
2026-05-06 11:29 28.88256 -13.45122 16629 ft 388 kts 209°
2026-05-06 11:29 28.85855 -13.46429 15993 ft 385 kts 209°
2026-05-06 11:30 28.83430 -13.47750 15353 ft 383 kts 209°
2026-05-06 11:30 28.81056 -13.49042 14727 ft 381 kts 208°
2026-05-06 11:30 28.78662 -13.50342 14107 ft 379 kts 208°
2026-05-06 11:30 28.76288 -13.51630 13484 ft 376 kts 208°
2026-05-06 11:31 28.73929 -13.52911 12865 ft 374 kts 208°
2026-05-06 11:31 28.71595 -13.54178 12243 ft 372 kts 208°
2026-05-06 11:31 28.69275 -13.55437 11611 ft 370 kts 208°
2026-05-06 11:31 28.66963 -13.56689 11188 ft 363 kts 208°
2026-05-06 11:32 28.64716 -13.57902 10959 ft 349 kts 208°
2026-05-06 11:32 28.62573 -13.59059 10763 ft 336 kts 208°
2026-05-06 11:32 28.60488 -13.60187 10664 ft 320 kts 209°
2026-05-06 11:32 28.58530 -13.61245 10615 ft 306 kts 209°
2026-05-06 11:33 28.56639 -13.62266 10516 ft 293 kts 209°
2026-05-06 11:33 28.54820 -13.63249 10281 ft 286 kts 207°
2026-05-06 11:33 28.52927 -13.63997 9884 ft 289 kts 196°
2026-05-06 11:33 28.50933 -13.64342 9480 ft 291 kts 188°
2026-05-06 11:34 28.48912 -13.64536 9064 ft 292 kts 187°
2026-05-06 11:34 28.46900 -13.64709 8650 ft 292 kts 187°
2026-05-06 11:34 28.44858 -13.64887 8220 ft 292 kts 187°
2026-05-06 11:34 28.42833 -13.65069 7801 ft 292 kts 186°
2026-05-06 11:35 28.40833 -13.65254 7398 ft 288 kts 186°
2026-05-06 11:35 28.38857 -13.65437 6973 ft 278 kts 186°
2026-05-06 11:35 28.36955 -13.65616 6558 ft 270 kts 186°
2026-05-06 11:35 28.35125 -13.65923 6190 ft 267 kts 195°
2026-05-06 11:36 28.33371 -13.66611 5872 ft 263 kts 207°
2026-05-06 11:36 28.31804 -13.67626 5634 ft 257 kts 216°
2026-05-06 11:36 28.30381 -13.68831 5379 ft 252 kts 221°
2026-05-06 11:36 28.29098 -13.70161 5114 ft 247 kts 232°
2026-05-06 11:37 28.28311 -13.71834 4850 ft 238 kts 259°
2026-05-06 11:37 28.28089 -13.73668 4606 ft 236 kts 272°
2026-05-06 11:37 28.28141 -13.75515 4321 ft 236 kts 276°
2026-05-06 11:37 28.28244 -13.77360 4019 ft 232 kts 277°
2026-05-06 11:38 28.28348 -13.79155 3699 ft 224 kts 277°
2026-05-06 11:38 28.28448 -13.80911 3404 ft 220 kts 277°
2026-05-06 11:38 28.28538 -13.82614 3118 ft 219 kts 277°
2026-05-06 11:38 28.28816 -13.84294 2801 ft 213 kts 302°
2026-05-06 11:39 28.29745 -13.85509 2519 ft 203 kts 325°
2026-05-06 11:39 28.30891 -13.86429 2312 ft 194 kts 342°
2026-05-06 11:39 28.32122 -13.86745 2310 ft 172 kts 358°
2026-05-06 11:39 28.33287 -13.86783 2124 ft 161 kts
2026-05-06 11:40 28.34364 -13.86750 1919 ft 149 kts
2026-05-06 11:40 28.35402 -13.86707 1714 ft 148 kts
2026-05-06 11:40 28.36424 -13.86669 1517 ft 147 kts
2026-05-06 11:40 28.37453 -13.86635 1316 ft 143 kts
2026-05-06 11:41 28.38419 -13.86606 1117 ft 136 kts
2026-05-06 11:41 28.39368 -13.86576 950 ft 135 kts
2026-05-06 11:41 28.40318 -13.86544 790 ft 135 kts
2026-05-06 11:41 28.41266 -13.86513 614 ft 135 kts
2026-05-06 11:42 28.42205 -13.86480 415 ft 135 kts
2026-05-06 11:42 28.43137 -13.86451 203 ft 133 kts
2026-05-06 11:42 28.44056 -13.86417 69 ft 131 kts
2026-05-06 11:42 28.44932 -13.86386 34 ft 112 kts
2026-05-06 11:43 28.45556 -13.86366 33 ft 69 kts
2026-05-06 11:43 28.45906 -13.86368 33 ft 35 kts 351°
2026-05-06 11:43 28.46083 -13.86438 34 ft 19 kts 332°
2026-05-06 11:44 28.46056 -13.86543 33 ft 12 kts 180°
2026-05-06 11:44 28.45967 -13.86547 34 ft 13 kts 181°
2026-05-06 11:44 28.45872 -13.86549 34 ft 13 kts 182°
2026-05-06 11:44 28.45776 -13.86553 33 ft 14 kts 182°
2026-05-06 11:45 28.45673 -13.86556 34 ft 14 kts 181°
2026-05-06 11:45 28.45567 -13.86561 34 ft 15 kts 181°
2026-05-06 11:45 28.45487 -13.86563 33 ft 10 kts 181°
2026-05-06 11:45 28.45407 -13.86564 33 ft 12 kts 181°
2026-05-06 11:46 28.45328 -13.86567 34 ft 9 kts 184°
2026-05-06 11:46 28.45270 -13.86571 33 ft 8 kts 182°
2026-05-06 11:46 28.45213 -13.86573 33 ft 5 kts 181°
2026-05-06 11:46 28.45172 -13.86574 33 ft 4 kts 180°
2026-05-06 11:47 28.45141 -13.86574 34 ft 4 kts 181°
2026-05-06 11:47 28.45106 -13.86583 33 ft 5 kts 221°
2026-05-06 11:47 28.45097 -13.86628 34 ft 6 kts 269°
2026-05-06 11:47 28.45097 -13.86660 34 ft 0 kts 271°
2026-05-06 11:49 28.45097 -13.86661 34 ft 0 kts 271°
2026-05-06 11:49 28.45098 -13.86671 34 ft 2 kts 272°
2026-05-06 11:49 28.45098 -13.86694 34 ft 3 kts 270°
2026-05-06 11:49 28.45090 -13.86724 34 ft 4 kts 235°
2026-05-06 11:50 28.45060 -13.86742 33 ft 5 kts 188°
2026-05-06 11:50 28.45015 -13.86746 34 ft 6 kts 186°
2026-05-06 11:50 28.44992 -13.86793 34 ft 6 kts 268°
2026-05-06 11:50 28.44994 -13.86837 34 ft 0 kts 273°
2026-05-06 11:51 28.44994 -13.86842 34 ft 0 kts 271°